Flag for Germany Weather past 2 weeks in Kassel, Hesse, Germany

Now
48 °F

Cool.


Feels Like: 45 °F
Forecast: 41 / 74 °F
Wind: 7 mph from Northwest

Location: Fritzlar Airport


UV Index: 3 (Moderate)

Visibility: N/A


Pressure: 30.12 "Hg

Humidity: 94%

Dew point: 46 °F

Location of KasselLocation

Historic Weather in Kassel

°F

Kassel temperature yesterday

Maximum temperature yesterday: 68 °F (at 3:20 PM)
Minimum temperature yesterday: 43 °F (at 5:20 AM)
Average temperature yesterday: 53 °F

Past Weeks' High & Low Weather Summary

 TemperatureHumidityPressure
High68 °F (Apr 23, 3:20 PM)100% (Apr 22, 1:20 AM)30.45 "Hg (Apr 22, 1:20 AM)
Low30 °F (Apr 16, 4:20 AM)36% (Apr 17, 5:00 PM)29.62 "Hg (Apr 21, 2:50 PM)
Average49 °F74%30.04 "Hg
* Reported Apr 9 12:20 AM — Apr 24 12:20 AM, Kassel, Weather by CustomWeather, © 2014

Note: Actual official high and low records may vary slightly from our data, if they occured in-between our weather recording intervals... More about our weather records

Advertising

Historic Weather Conditions — Data for Previous 24 hours

 ConditionsComfort  
Time TempWeatherWind HumidityBarometerVisibility
12:20 AM
Apr 24
48 °FCool.8 mph94%30.12 "HgN/A
11:20 PM
Apr 23
50 °FCool.8 mph94%30.12 "HgN/A
10:20 PM50 °FCool.6 mph94%30.12 "HgN/A
9:20 PM55 °FPassing clouds.5 mph77%30.12 "HgN/A
8:20 PM57 °FScattered clouds.10 mph72%30.12 "HgN/A
7:20 PM59 °FScattered clouds.8 mph68%30.09 "HgN/A
6:20 PM63 °FScattered clouds.8 mph59%30.09 "HgN/A
5:20 PM63 °FScattered clouds.13 mph56%30.09 "HgN/A
4:20 PM68 °FBroken clouds.5 mph43%30.09 "HgN/A
3:20 PM68 °FBroken clouds.3 mph43%30.09 "HgN/A
2:20 PM66 °FBroken clouds.5 mph49%30.09 "HgN/A
1:20 PM64 °FBroken clouds.5 mph56%30.12 "HgN/A
12:20 PM61 °FBroken clouds.3 mph68%30.12 "HgN/A
11:20 AM55 °FPartly sunny.2 mph94%30.12 "HgN/A
10:57 AM52 °FFog.1 mph100%30.12 "Hg3 mi
10:46 AM50 °FFog.1 mph100%30.12 "Hg2 mi
10:20 AM48 °FFog.1 mph94%30.12 "Hg1 mi
9:46 AM46 °FFog.2 mph93%30.12 "Hg0 mi
9:20 AM45 °FFog.2 mph100%30.12 "Hg0 mi
8:20 AM43 °FFog.2 mph100%30.12 "Hg0 mi
7:20 AM43 °FFog.1 mph100%30.09 "Hg0 mi
6:20 AM43 °FFog.2 mph100%30.09 "Hg0 mi
5:20 AM43 °FFog.2 mph100%30.09 "Hg0 mi
4:20 AM45 °FFog.2 mph93%30.07 "Hg0 mi
3:20 AM45 °FFog.2 mph100%30.07 "Hg0 mi
2:20 AM46 °FFog.2 mph93%30.07 "Hg0 mi
1:20 AM46 °FFog.No wind93%30.04 "Hg0 mi
Weather by CustomWeather, © 2014

See weather overview